Simultaneous Nadir Overpasses (SNOs) Predictions

Prediction of SNOs between GOES-17 and NOAA-20 Satellite Orbit:

Table of predicted SNOs for the next 14.0 days since TLE Epoch: 8/24/2024
Index Date Time (GOES-17) GOES-17 Lat,Lon NOAA-20 Lat,Lon Distance(km) Time Diff (sec)
1 08/24/2024 20:26:26 0.00,-104.72 -0.25,-105.88 132.21 80
2 08/25/2024 20:10:21 0.01,-104.72 0.79,-101.36 384.71 80
3 08/27/2024 08:32:06 -0.01,-104.71 0.41,-106.61 217.36 80
4 08/28/2024 08:10:40 -0.01,-104.71 -0.62,-102.09 299.23 80
5 08/29/2024 20:32:35 0.01,-104.72 -0.57,-107.38 302.97 80
6 08/30/2024 20:16:28 0.01,-104.73 0.41,-102.84 214.22 80
7 09/01/2024 08:38:15 -0.01,-104.72 0.72,-108.12 386.64 80
8 09/02/2024 08:16:48 -0.01,-104.72 -0.27,-103.58 130.57 80
9 09/03/2024 20:38:42 0.01,-104.74 -0.90,-108.88 471.05 80
10 09/04/2024 20:22:36 0.01,-104.75 0.10,-104.34 46.68 80
